STARLINK-1362, 45538

Orbit data source: Space-Track

STARLINK-1362, 45538 is a payload satellite owned by SpaceX/Seattle (US) in LEO that was launched on Wed, 22 Apr 2020 UTC via an FALCON 9 launch vehicle from the Air Force Eastern Test Range (AFETR). Payload-class satellites include a variety of spacecraft equipped with specific instruments for various scientific and technological missions. These include communications satellites like Starlink; space stations such as the ISS; scientific satellites like the Hubble; Earth observation satellites from companies like Planet Labs, Umbra, and HawkEye 360; GPS; miniature CubeSats for education and research; and military/defense satellites.

Loading next visibility...
Identifier
45538, 2020-025H
Orbit
LEO
Country
Flag of USUS
Related business
Manufacturer
SpaceX/Seattle
Mission
Operational Commercial Communications
Bus & Motor
STARLINK, Unknown motor
Mass
260 kg wet, ~248 kg dry
Launch date (UTC)
2020-04-22 (6 years ago)
Launch vehicle
FALCON 9
Launch site
Air Force Eastern Test Range (AFETR)
Object type
Payload
Rocket body
Debris
Shape & HBR
Box + 1 Pan, 10.1 m
Radar Cross Section
13.562 m², Large (>1 m²)

Expand to show TLE details & history
Last TLE update: 12 hours ago

TLE from 12 hours ago
0 STARLINK-1362
1 45538U 20025H   26123.52819764 -.00126276  00000-0 -38472-2 0  9992
2 45538  53.1586 205.6573 0002500  46.3324 313.7886 15.33917443333580
Epoch: 2026-05-03T12:40Z
TLE epoch observation values (Epoch: 2026-05-03T12:40:36.276Z)
Latitude
0.00006°
Longitude
154.07574°
Altitude
463.855 km
Speed
7.636 km/s
True Right ascension
13h 42m 37s
True Declination
0° 00' 00"
Sunlit
Object was in full shadow at epoch
Visualization orbit readout
Latitude
Unknown
Longitude
Unknown
Altitude
Unknown
Speed
Unknown
Apparent Right ascension
Unknown
Apparent Declination
Unknown
Sunlit
N/A
Visualization observer readout
Local Sidereal Time
08:19:24
Azimuth
Unknown
Elevation
Unknown
Doppler factor
Unknown
Orbital elements
Apogee altitude
466.106 km
Perigee altitude
462.684 km
Semi-major axis
6,842.532 km
Eccentricity
0.00025
Inclination
53.1586°
RAAN
205.6573°
Arg. of periapsis
46.3324°
True anomaly
313.76791°
Mean anomaly
313.7886°
Eccentric anomaly
313.77826°
Mean motion
3.83458 °/min
Orbital period
93.88 mins
BSTAR
-0.0038472
Loading maneuver chart data...
Computing Atmospheric mass density...
Loading historical data...
Loading historical data...
Loading historical data...
Loading historical data...
Loading historical data...
Loading historical data...
Loading historical data...

Documentation

Showing up to 5 results
|